Location: Newark
(47.5783°N, 6.7622°E)
Time: 16:07:45
(UTC+00:00)

Transit 2A - All Passes

Search period start: 26 February 2020 00:00
Search period end: 07 March 2020 00:00
Orbit: 599 x 959 km, 66.7° (Epoch: 25 February)

Date Brightness Start Highest point End Pass type
(mag) Time Alt. Az. Time Alt. Az. Time Alt. Az.
26 Feb - 11:41:16 10° SSW 11:45:31 61° ESE 11:49:57 10° NE daylight
26 Feb - 13:25:36 10° W 13:29:04 22° NW 13:32:41 10° NNE daylight
26 Feb - 18:40:46 10° NNW 18:44:50 24° NE 18:49:12 10° E visible
26 Feb - 20:23:21 10° NW 20:28:28 75° WSW 20:34:06 10° SSE visible
26 Feb - 22:08:47 10° W 22:10:57 12° WSW 22:13:12 10° SW visible
27 Feb - 11:07:27 10° S 11:11:29 40° ESE 11:15:39 10° NE daylight
27 Feb - 12:50:53 10° WSW 12:54:43 29° NW 12:58:44 10° NNE daylight
27 Feb - 18:06:51 10° N 18:10:26 19° NE 18:14:16 10° E visible
27 Feb - 19:49:13 10° NNW 19:54:20 80° NE 19:59:59 10° SE visible
27 Feb - 21:33:30 10° WNW 21:37:03 18° WSW 21:40:47 10° SSW visible
28 Feb - 10:33:52 10° S 10:37:30 27° ESE 10:41:13 10° NE daylight
28 Feb - 12:16:20 10° WSW 12:20:26 40° NW 12:24:45 10° NNE daylight
28 Feb - 14:03:33 10° NW 14:04:58 11° NNW 14:06:23 10° N daylight
28 Feb - 17:33:00 10° N 17:36:00 16° NNE 17:39:10 10° ENE daylight
28 Feb - 19:15:08 10° NNW 19:20:09 59° NE 19:25:42 10° SE visible
28 Feb - 20:58:48 10° WNW 21:03:05 26° WSW 21:07:41 10° SSW visible
29 Feb - 10:00:38 10° SSE 10:03:34 18° ESE 10:06:34 10° ENE daylight
29 Feb - 11:41:56 10° SW 11:46:12 57° NW 11:50:41 10° NNE daylight
29 Feb - 13:28:09 10° WNW 13:30:26 14° NNW 13:32:48 10° N daylight
29 Feb - 16:59:14 10° N 17:01:31 13° NNE 17:03:53 10° NE daylight
29 Feb - 18:41:06 10° NNW 18:45:56 44° NE 18:51:15 10° ESE visible
29 Feb - 20:24:20 10° NW 20:29:04 36° WSW 20:34:14 10° S visible
01 Mar - 09:28:06 10° SE 09:29:41 12° ESE 09:31:17 10° E daylight
01 Mar - 11:07:42 10° SW 11:12:02 84° NW 11:16:35 10° NNE daylight
01 Mar - 12:53:03 10° WNW 12:55:58 17° NNW 12:59:00 10° N daylight
01 Mar - 16:25:42 10° N 16:26:58 11° NNE 16:28:16 10° NE daylight
01 Mar - 18:07:05 10° NNW 18:11:40 33° NE 18:16:38 10° ESE visible
01 Mar - 19:50:01 10° NW 19:55:01 50° WSW 20:00:32 10° SSE visible
02 Mar - 10:33:39 10° SSW 10:37:56 66° ESE 10:42:25 10° NE daylight
02 Mar - 12:18:08 10° W 12:21:33 21° NW 12:25:07 10° NNE daylight
02 Mar - 17:33:08 10° NNW 17:37:20 26° NE 17:41:54 10° E daylight
02 Mar - 19:15:47 10° NW 19:20:56 71° WSW 19:26:38 10° SSE visible
02 Mar - 21:01:33 10° W 21:03:23 12° WSW 21:05:15 10° SW visible
03 Mar - 09:59:47 10° S 10:03:53 43° ESE 10:08:09 10° NE daylight
03 Mar - 11:43:24 10° WSW 11:47:11 28° NW 11:51:10 10° NNE daylight
03 Mar - 16:59:11 10° NNW 17:02:58 21° NE 17:06:59 10° E daylight
03 Mar - 18:41:37 10° NNW 18:46:48 85° ENE 18:52:32 10° SE visible
03 Mar - 20:26:04 10° WNW 20:29:28 17° WSW 20:33:04 10° SSW visible
04 Mar - 09:26:09 10° S 09:29:53 29° ESE 09:33:46 10° NE daylight
04 Mar - 11:08:49 10° WSW 11:12:54 38° NW 11:17:11 10° NNE daylight
04 Mar - 12:56:11 10° NW 12:57:29 11° NNW 12:58:47 10° N daylight
04 Mar - 16:25:18 10° N 16:28:32 17° NNE 16:31:56 10° ENE daylight
04 Mar - 18:07:32 10° NNW 18:12:38 63° NE 18:18:16 10° SE visible
04 Mar - 19:51:18 10° WNW 19:55:31 24° WSW 20:00:03 10° SSW visible
05 Mar - 08:52:49 10° SSE 08:55:56 20° ESE 08:59:09 10° ENE daylight
05 Mar - 10:34:24 10° SW 10:38:39 53° NW 10:43:09 10° NNE daylight
05 Mar - 12:20:44 10° NW 12:22:57 13° NNW 12:25:14 10° N daylight
05 Mar - 15:51:29 10° N 15:54:03 14° NNE 15:56:43 10° ENE daylight
05 Mar - 17:33:28 10° NNW 17:38:25 47° NE 17:43:51 10° ESE daylight
05 Mar - 19:16:48 10° NW 19:21:31 34° WSW 19:26:39 10° S visible
06 Mar - 08:20:03 10° SE 08:22:04 13° ESE 08:24:05 10° ENE daylight
06 Mar - 10:00:07 10° SW 10:04:27 78° NW 10:09:03 10° NNE daylight
06 Mar - 11:45:37 10° WNW 11:48:28 16° NNW 11:51:26 10° N daylight
06 Mar - 15:17:49 10° N 15:19:31 11° NNE 15:21:16 10° NE daylight
06 Mar - 16:59:27 10° NNW 17:04:09 35° NE 17:09:17 10° ESE daylight
06 Mar - 18:42:27 10° NW 18:47:29 47° WSW 18:53:00 10° S visible
